TV
NORAD ID: 26298
Int'l Code: 2000-020A
Perigee: 35,893.0 km
Apogee: 35,944.8 km
Inclination: 6.0 °
Period: 1,442.5 minutes
Semi major axis: 42289 km
Launch date: April 19, 2000
Source: United States (US)
Comments: Television and Internet; 24 C-band, 24 Ku-band; North America.
Two Line Element Set (TLE):
1 26298U 00020A 13141.27943539 -.00000040 00000-0 10000-3 0 3466
2 26298 005.9757 059.8091 0006120 037.6686 322.1953 00.99826943 47993
Source: AFSPC
NASA's NSSDC Master Catalog entry for GALAXY 4R